Station TLBO3 - 9437540 - Garibaldi, Tillamook Bay, OR Image indicating link to RSS feed of recent meteorological observations for station TLBO3


Conditions at TLBO3 as of
(12:54 am PDT)
0754 GMT on 05/26/2024:
     

Click on the graph icon in the table below to see a time series plot of the last five days of that observation.

5-day plot - Atmospheric Pressure Atmospheric Pressure (PRES):30.15 in
5-day plot - Water Temperature Water Temperature (WTMP): 52.3 °F
NOS Water Level Observation Network Water Level
Previous observations
TIME
(PDT)
5-day plot - Wind Direction
WDIR
 
5-day plot - Wind Speed
WSPD
kts
5-day plot - Wind Gust
GST
kts
5-day plot - Wave Height
WVHT
ft
5-day plot - Dominant Wave Period
DPD
sec
5-day plot - Average Wave Period
APD
sec
5-day plot - Mean Wave Direction
MWD
 
5-day plot - Atmospheric Pressure
PRES
in
5-day plot - Pressure Tendency
PTDY
in
5-day plot - Air Temperature
ATMP
°F
5-day plot - Water Temperature
WTMP
°F
5-day plot - Dew Point
DEWP
°F
5-day plot - Salinity
SAL
psu
5-day plot - Visibility
VIS
nmi
5-day plot - Tide (above MLLW)
TIDE
ft
2024-05-26 12:48 am-------30.14-- 52.3----
2024-05-26 12:42 am-------30.14-- 52.2----
2024-05-26 12:36 am-------30.14-- 52.2----
2024-05-26 12:30 am-------30.14-- 52.2----
2024-05-26 12:24 am-------30.14-- 52.2----
2024-05-26 12:18 am-------30.14-- 52.2----
2024-05-26 12:12 am-------30.14-- 52.2----
2024-05-26 12:06 am-------30.14-- 52.2----
2024-05-26 12:00 am-------30.14+0.00- 52.2----
2024-05-25 11:54 pm-------30.14-- 52.2----
2024-05-25 11:48 pm-------30.15-- 52.3----
2024-05-25 11:42 pm-------30.15-- 52.3----
2024-05-25 11:36 pm-------30.15-- 52.5----
2024-05-25 11:30 pm-------30.15-- 52.5----
2024-05-25 11:24 pm-------30.15-- 52.7----
2024-05-25 11:18 pm-------30.15-- 52.7----
2024-05-25 11:12 pm-------30.15-- 52.7----
2024-05-25 11:06 pm-------30.15-- 52.7----
2024-05-25 11:00 pm-------30.15+0.01- 52.7----
2024-05-25 10:54 pm-------30.15-- 52.7----
2024-05-25 10:48 pm-------30.15-- 52.7----
2024-05-25 10:42 pm-------30.15-- 52.7----
2024-05-25 10:36 pm-------30.15-- 52.7----
2024-05-25 10:30 pm-------30.15-- 52.9----
2024-05-25 10:24 pm-------30.15-- 52.9----
2024-05-25 10:18 pm-------30.15-- 52.9----
2024-05-25 10:12 pm-------30.15-- 53.1----
2024-05-25 10:06 pm-------30.15-- 53.1----
2024-05-25 10:00 pm-------30.15+0.01- 53.1----
2024-05-25 09:54 pm-------30.15-- 53.1----
2024-05-25 09:48 pm-------30.15-- 53.2----
2024-05-25 09:42 pm-------30.15-- 53.2----
2024-05-25 09:36 pm-------30.15-- 53.2----
2024-05-25 09:30 pm-------30.15-- 53.2----
2024-05-25 09:24 pm-------30.14-- 53.2----
2024-05-25 09:18 pm-------30.14-- 53.4----
2024-05-25 09:12 pm-------30.14-- 53.4----
2024-05-25 09:06 pm-------30.14-- 53.4----
2024-05-25 09:00 pm-------30.14+0.00- 53.4----
2024-05-25 08:54 pm-------30.14-- 53.6----
2024-05-25 08:48 pm-------30.14-- 53.6----
2024-05-25 08:42 pm-------30.14-- 53.6----
2024-05-25 08:36 pm-------30.14-- 53.6----
2024-05-25 08:30 pm-------30.14-- 53.6----
2024-05-25 08:24 pm-------30.14-- 53.6----
2024-05-25 08:18 pm-------30.14-- 53.8----
2024-05-25 08:12 pm-------30.14-- 53.8----
2024-05-25 08:06 pm-------30.14-- 53.8----
2024-05-25 08:00 pm-------30.14-0.01- 53.8----
2024-05-25 07:54 pm-------30.14-- 53.8----
2024-05-25 07:48 pm-------30.14-- 54.0----
2024-05-25 07:42 pm-------30.14-- 54.0----
2024-05-25 07:36 pm-------30.14-- 54.0----
2024-05-25 07:30 pm-------30.14-- 54.1----
2024-05-25 07:24 pm-------30.14-- 54.1----
2024-05-25 07:18 pm-------30.14-- 54.1----
2024-05-25 07:12 pm-------30.14-- 54.1----
2024-05-25 07:06 pm-------30.14-- 53.8----
2024-05-25 07:00 pm-------30.14+0.00- 53.4----
2024-05-25 06:54 pm-------30.14-- 53.2----
2024-05-25 06:48 pm-------30.14-- 53.2----
2024-05-25 06:42 pm-------30.14-- 53.2----
2024-05-25 06:36 pm-------30.14-- 53.2----
2024-05-25 06:30 pm-------30.15-- 53.2----
2024-05-25 06:24 pm-------30.14-- 52.9----
2024-05-25 06:18 pm-------30.14-- 52.7----
2024-05-25 06:12 pm-------30.14-- 52.3----
2024-05-25 06:06 pm-------30.14-- 51.8----
2024-05-25 06:00 pm-------30.14-- 51.6----
2024-05-25 05:54 pm-------30.14-- 51.6----
2024-05-25 05:48 pm-------30.14-- 51.6----
2024-05-25 05:42 pm-------30.14-- 51.6----
2024-05-25 05:36 pm-------30.14-- 51.6----
2024-05-25 05:30 pm-------30.15-- 51.6----
2024-05-25 05:24 pm-------30.15-- 51.6----
2024-05-25 05:18 pm-------30.15-- 51.4----
2024-05-25 05:12 pm-------30.15-- 51.4----
2024-05-25 05:06 pm-------30.15-- 51.4----
2024-05-25 05:00 pm-------30.14+0.02- 51.4----
2024-05-25 04:54 pm-------30.14-- 51.4----
2024-05-25 04:48 pm-------30.14-- 51.3----
2024-05-25 04:42 pm-------30.14-- 51.1----
2024-05-25 04:36 pm-------30.14-- 51.1----
2024-05-25 04:30 pm-------30.14-- 51.1----
2024-05-25 04:24 pm-------30.14-- 51.1----
2024-05-25 04:00 pm-------30.14+0.03- 51.4----
2024-05-25 03:54 pm-------30.14-- 51.4----
2024-05-25 03:48 pm-------30.14-- 51.4----
2024-05-25 03:42 pm-------30.13-- 51.4----
2024-05-25 03:36 pm-------30.13-- 51.4----
2024-05-25 03:30 pm-------30.13-- 51.4----
2024-05-25 03:24 pm-------30.13-- 51.4----
2024-05-25 03:18 pm-------30.13-- 51.4----
2024-05-25 03:12 pm-------30.13-- 51.4----
2024-05-25 03:06 pm-------30.13-- 51.6----
2024-05-25 03:00 pm---------- 51.6----
2024-05-25 02:54 pm---------- 51.6----
2024-05-25 02:48 pm-------30.13-- 51.8----
2024-05-25 02:42 pm-------30.13-- 51.8----
2024-05-25 02:36 pm-------30.13-- 51.8----
2024-05-25 02:30 pm-------30.13-------
2024-05-25 02:24 pm-------30.13-------
2024-05-25 02:18 pm-------30.12-- 52.0----
2024-05-25 02:12 pm-------30.12-- 52.0----
2024-05-25 02:06 pm-------30.12-- 52.2----
2024-05-25 02:00 pm-------30.12+0.05- 52.2----
2024-05-25 01:54 pm-------30.12-- 52.2----
2024-05-25 01:48 pm-------30.12-- 52.2----
2024-05-25 01:42 pm-------30.12-- 52.2----
2024-05-25 01:36 pm-------30.12-- 52.0----
2024-05-25 01:30 pm-------30.12-- 52.0----
2024-05-25 01:24 pm-------30.12-- 52.2----
2024-05-25 01:18 pm-------30.12-- 52.2----
2024-05-25 01:12 pm-------30.11-- 52.2----
2024-05-25 01:06 pm-------30.11-- 52.2----
2024-05-25 01:00 pm-------30.11+0.05- 52.2----
2024-05-25 12:54 pm-------30.11-- 52.3----
2024-05-25 12:48 pm-------30.10-- 52.3----
2024-05-25 12:42 pm-------30.10-- 52.5----
2024-05-25 12:36 pm-------30.10-- 52.9----
2024-05-25 12:30 pm-------30.10-- 53.4----
2024-05-25 12:24 pm-------30.09-- 53.6----
2024-05-25 12:18 pm-------30.09-- 53.8----
2024-05-25 12:12 pm-------30.09-- 54.0----
2024-05-25 12:06 pm-------30.09-- 54.1----
2024-05-25 12:00 pm-------30.09+0.05- 54.3----
2024-05-25 11:54 am-------30.09-- 54.3----
2024-05-25 11:48 am-------30.09-- 54.5----
2024-05-25 11:42 am-------30.09-- 54.5----
2024-05-25 11:36 am-------30.09-- 54.5----
2024-05-25 11:30 am-------30.09-- 54.5----
2024-05-25 11:24 am-------30.08-- 54.5----
2024-05-25 11:18 am-------30.08-- 54.5----
2024-05-25 11:12 am-------30.08-- 54.5----
2024-05-25 11:06 am-------30.08-- 54.7----
2024-05-25 11:00 am-------30.07+0.06- 54.7----
2024-05-25 10:54 am-------30.08-- 54.7----
2024-05-25 10:48 am-------30.07-- 54.7----
2024-05-25 10:42 am-------30.07-- 54.7----
2024-05-25 10:36 am-------30.07-- 54.7----
2024-05-25 10:30 am-------30.06-- 54.7----
2024-05-25 10:24 am-------30.06-- 54.7----
2024-05-25 10:18 am-------30.06-- 54.7----
2024-05-25 10:12 am-------30.06-- 54.7----
2024-05-25 10:06 am-------30.06-- 54.7----
2024-05-25 10:00 am-------30.06+0.06- 54.7----
2024-05-25 09:54 am-------30.05-- 54.7----
2024-05-25 09:48 am-------30.05-- 54.7----
2024-05-25 09:42 am-------30.04-- 54.7----
2024-05-25 09:36 am-------30.04-- 54.7----
2024-05-25 09:30 am-------30.04-- 54.7----
2024-05-25 09:24 am-------30.04-- 54.7----
2024-05-25 09:18 am-------30.04-- 54.7----
2024-05-25 09:12 am-------30.04-- 54.7----
2024-05-25 09:06 am-------30.03-- 54.7----
2024-05-25 09:00 am-------30.03+0.05- 54.7----
2024-05-25 08:54 am-------30.03-- 54.5----
2024-05-25 08:48 am-------30.03-- 54.5----
2024-05-25 08:42 am-------30.03-- 54.5----
2024-05-25 08:36 am-------30.03-- 54.5----
2024-05-25 08:30 am-------30.03-- 54.3----
2024-05-25 08:24 am-------30.03-- 54.3----
2024-05-25 08:18 am-------30.03-- 54.3----
2024-05-25 08:12 am-------30.02-- 54.3----
2024-05-25 08:06 am-------30.02-- 54.7----
2024-05-25 08:00 am-------30.01+0.04- 54.9----
2024-05-25 07:54 am-------30.01-- 54.9----
2024-05-25 07:48 am-------30.01-- 54.9----
2024-05-25 07:42 am-------30.01-- 54.9----
2024-05-25 07:36 am-------30.01-- 54.9----
2024-05-25 07:30 am-------30.01-- 54.9----
2024-05-25 07:24 am-------30.01-- 54.9----
2024-05-25 07:18 am-------30.00-- 54.9----
2024-05-25 07:12 am-------30.00-- 54.9----
2024-05-25 07:06 am-------30.00-- 54.9----
2024-05-25 07:00 am-------30.00+0.02- 54.9----
2024-05-25 06:54 am-------30.00-- 54.7----
2024-05-25 06:48 am-------30.00-- 54.7----
2024-05-25 06:42 am-------30.00-- 54.7----
2024-05-25 06:36 am-------30.00-- 54.5----
2024-05-25 06:30 am-------30.00-- 54.5----
2024-05-25 06:24 am-------29.99-- 54.5----
2024-05-25 06:18 am-------29.99-- 54.3----
2024-05-25 06:12 am-------29.99-- 54.3----
2024-05-25 06:06 am-------29.98-- 54.3----
2024-05-25 06:00 am-------29.98+0.00- 54.3----
2024-05-25 05:54 am-------29.98-- 54.1----
2024-05-25 05:48 am-------29.98-- 54.1----
2024-05-25 05:42 am-------29.98-- 54.0----
2024-05-25 05:36 am-------29.98-- 53.8----
2024-05-25 05:30 am-------29.98-- 53.8----
2024-05-25 05:24 am-------29.98-- 53.8----
2024-05-25 05:18 am-------29.98-- 53.6----
2024-05-25 05:12 am-------29.98-- 53.6----
2024-05-25 05:06 am-------29.98-- 53.6----
2024-05-25 05:00 am-------29.98+0.01- 53.4----
2024-05-25 04:54 am-------29.98-- 53.4----
2024-05-25 04:48 am-------29.98-- 53.4----
2024-05-25 04:42 am-------29.98-- 53.4----
2024-05-25 04:36 am-------29.98-- 53.2----
2024-05-25 04:30 am-------29.98-- 53.2----
2024-05-25 04:24 am-------29.98-- 53.2----
2024-05-25 04:18 am-------29.97-- 53.1----
2024-05-25 04:12 am-------29.98-- 53.1----
2024-05-25 04:06 am-------29.98-- 53.1----
2024-05-25 04:00 am-------29.98+0.02- 53.1----
2024-05-25 03:54 am-------29.97-- 53.1----
2024-05-25 03:48 am-------29.97-- 52.9----
2024-05-25 03:42 am-------29.97-- 53.1----
2024-05-25 03:36 am-------29.97-- 52.9----
2024-05-25 03:30 am-------29.97-- 52.9----
2024-05-25 03:24 am-------29.98-- 52.9----
2024-05-25 03:18 am-------29.98-- 52.9----
2024-05-25 03:12 am-------29.98-- 52.9----
2024-05-25 03:06 am-------29.98-- 52.9----
2024-05-25 03:00 am-------29.98+0.03- 52.7----
2024-05-25 02:54 am-------29.98-- 52.5----
2024-05-25 02:48 am-------29.97-- 52.5----
2024-05-25 02:42 am-------29.97-- 52.5----
2024-05-25 02:36 am-------29.97-- 52.5----
2024-05-25 02:30 am---------- 52.5----
2024-05-25 02:24 am---------- 52.5----
2024-05-25 02:18 am-------29.97-- 52.5----
2024-05-25 02:12 am-------29.97-- 52.5----
2024-05-25 02:06 am-------29.97-- 52.5----
2024-05-25 02:00 am-------29.96+0.01- 52.5----
2024-05-25 01:54 am-------29.96-- 52.5----
2024-05-25 01:48 am-------29.96-- 52.5----
2024-05-25 01:42 am-------29.96-- 52.5----
2024-05-25 01:36 am-------29.96-- 52.7----
2024-05-25 01:30 am-------29.96-------
2024-05-25 01:24 am-------29.96-------
2024-05-25 01:18 am-------29.96-------
2024-05-25 01:12 am-------29.96-------
2024-05-25 01:06 am-------29.96-------
2024-05-25 01:00 am-------29.96+0.00- 52.9----
2024-05-25 12:54 am-------29.96-- 52.9----